Starlink 4447

operational
NORAD ID: 53472 Int'l Des: 2022-099 Owner: SPXS Country: US Constellation: starlink
LEOCIRCULARRETROGRADESSO

About Starlink 4447

Description loading...

Live Position

Loading 3D Globe...

Upcoming Passes

Altitude History

Altitude vs Time

uPlot chart will show altitude changes over time

Two-Line Element Set

1 53472U 22099H 25259.08919999 .00000625 00000-0 53233-4 0 9993
2 53472 97.6051 19.2779 0001118 214.6845 145.4307 15.01259027169784
Epoch: Sep 16, 2025 • Age: 10 hours

Current Status

Altitude 564.9 km
Velocity 7.58 km/s
Sub-Earth Point 15.35°N, 19.04°E
Launch Date Aug 12, 2022
Age 3 years
Type internet

Technical Details

Classification Payload
Mass 300.00 kg
Dry Mass 275.00 kg
Total Mass 300.00 kg
Length 0.20 m
Diameter 2.80 m
Span 9.00 m
Shape Box + pan
Manufacturer SPXS
Bus Type Starlink
Phase Status In Orbit
Owner/State SPXS/US

Large Constellations

Loading constellations...